Location: Unspecified
(0.0000°N, 0.0000°E)
Time: 05:37:45
(UTC+00:00)

Transit 2A - Pass Details

Date: 01 October 2020
Orbit: 593 x 966 km, 66.7° (Epoch: 28 October)

Event Time Altitude Azimuth Distance (km) Brightness Sun altitude
Rises 06:24:21 0° 212° (SSW) 3,284 9.0 8.7°
Reaches altitude 10° 06:26:45 10° 217° (SW) 2,409 8.3 9.3°
Maximum altitude 06:32:07 48° 290° (WNW) 1,129 6.7 10.6°
Drops below altitude 10° 06:37:58 10° 4° (N) 2,614 8.8 12.1°
Sets 06:40:40 0° 9° (N) 3,590 9.5 12.7°
